• Join FlightAware (Why Join?)
  • Login
  • US Flag GB Flag 
04:24 EDT


 

Airport Tracker/Info


-or-


 

Live Flight TrackerFlight Track Log ✈ SWA2428 ✈ 27-Apr-2013 ✈ KONT - KSMF

Flight Track Log - Related Links

Times and Time Zones

All times are in EDT time to prevent confusion due to time zone crossing. See the SWA2428 flight status page for this flight to view local times or setup timezone preferences in your user account.

Time Position Orientation Groundspeed Altitude Reporting Facility
EDT Latitude Longitude Course Direction KTS MPH feet Rate Location/Type
10:46 34.0575 -117.6278 269° West 160 184 40,000  Level Los Angeles Center
10:47 34.0564 -117.6983 269° West 207 238 5,600 -16,260 Descending Los Angeles Center
10:48 34.0733 -117.7806 284° West 240 276 7,000 2,040 Climbing Los Angeles Center
10:49 34.1239 -117.8489 312° West 265 305 9,900 3,060 Climbing Los Angeles Center
10:50 34.1767 -117.9306 308° West 303 349 13,400 3,780 Climbing Los Angeles Center
10:51 34.2392 -118.0222 310° West 349 402 17,700 3,660 Climbing Los Angeles Center
10:52 34.2900 -118.0975 309° West 360 414 20,900 3,600 Climbing Los Angeles Center
10:53 34.3847 -118.2378 309° West 388 447 25,200 3,360 Climbing Los Angeles Center
10:54 34.4564 -118.3450 309° West 408 470 27,900 2,460 Climbing Los Angeles Center
10:55 34.5319 -118.4547 310° West 423 487 30,400 2,220 Climbing Los Angeles Center
10:56 34.6078 -118.5686 309° West 435 501 32,900 2,160 Climbing Los Angeles Center
10:58 34.7181 -118.6778 321° Northwest 430 495 35,800 1,320 Climbing Los Angeles Center
10:59 34.8483 -118.7444 337° Northwest 422 486 36,000 480 Climbing Los Angeles Center
11:00 34.9744 -118.8092 337° Northwest 425 489 36,900 1,500 Climbing Los Angeles Center
11:01 35.0808 -118.8642 337° Northwest 417 480 39,100 1,500 Climbing Los Angeles Center
11:02 35.1878 -118.9178 338° Northwest 417 480 40,000 420 Climbing Los Angeles Center
11:03 35.2964 -118.9739 337° Northwest 421 484 40,000  Level Los Angeles Center
11:04 35.4056 -119.0294 337° Northwest 425 489 40,000  Level Los Angeles Center
11:05 35.5144 -119.0872 337° Northwest 427 491 40,000  Level Los Angeles Center
11:06 35.6444 -119.1553 337° Northwest 424 488 40,000  Level Los Angeles Center
11:06 35.6661 -119.1650 340° North 427 491 40,000  Level Oakland Center
11:07 35.7739 -119.2208 337° Northwest 424 488 40,000  Level Oakland Center
11:08 35.8814 -119.2781 337° Northwest 424 488 40,000  Level Oakland Center
11:09 36.0106 -119.3461 337° Northwest 423 487 40,000  Level Oakland Center
11:10 36.1181 -119.4036 337° Northwest 418 481 40,000  Level Oakland Center
11:11 36.2250 -119.4603 337° Northwest 420 483 40,000  Level Oakland Center
11:12 36.3322 -119.5172 337° Northwest 420 483 40,000  Level Oakland Center
11:13 36.4389 -119.5742 337° Northwest 420 483 40,000  Level Oakland Center
11:14 36.5464 -119.6317 337° Northwest 422 486 40,000  Level Oakland Center
11:15 36.6528 -119.6903 336° Northwest 418 481 40,000  Level Oakland Center
11:16 36.7611 -119.7483 337° Northwest 422 486 40,000 -420 Level Oakland Center
11:17 36.8661 -119.8064 336° Northwest 417 480 39,200 -1,680 Descending Oakland Center
11:18 36.9594 -119.8908 324° Northwest 411 473 36,700 -2,640 Descending Oakland Center
11:19 37.0494 -119.9794 322° Northwest 412 474 33,900 -2,580 Descending Oakland Center
11:20 37.1406 -120.0700 322° Northwest 401 461 31,500 -2,340 Descending Oakland Center
11:21 37.2253 -120.1544 322° Northwest 389 448 29,200 -2,220 Descending Oakland Center
11:22 37.3058 -120.2361 321° Northwest 374 430 27,100 -2,280 Descending Oakland Center
11:24 37.4019 -120.3256 324° Northwest 356 410 24,600 -1,860 Descending Oakland Center
11:25 37.4769 -120.3978 323° Northwest 344 396 23,400 -1,140 Descending Oakland Center
11:25 37.5000 -120.4333 309° West 340 391 23,000 -1,020 Descending Northern Cal TRACON
11:26 37.5833 -120.5000 328° Northwest 338 389 22,000 -1,020 Descending Northern Cal TRACON
11:27 37.6500 -120.5833 315° West 331 381 21,000 -1,020 Descending Northern Cal TRACON
11:28 37.7167 -120.6500 322° Northwest 327 376 20,000 -1,020 Descending Northern Cal TRACON
11:29 37.8000 -120.7167 328° Northwest 323 372 19,000 -1,020 Descending Northern Cal TRACON
11:30 37.8667 -120.7833 322° Northwest 317 365 18,000 -840 Descending Northern Cal TRACON
11:31 37.9058 -120.8292 317° Northwest 320 368 17,600 -840 Descending Oakland Center
11:32 37.9758 -120.9008 321° Northwest 323 372 16,600 -1,020 Descending Oakland Center
11:33 38.0442 -120.9711 321° Northwest 317 365 15,600 -1,020 Descending Oakland Center
11:34 38.1078 -121.0494 316° Northwest 318 366 14,600 -1,020 Descending Oakland Center
11:35 38.1644 -121.1342 310° West 314 361 13,600 -1,080 Descending Oakland Center
11:36 38.2333 -121.2333 312° West 310 357 12,500 -1,260 Descending Northern Cal TRACON
11:37 38.2833 -121.3000 314° West 294 338 11,200 -1,680 Descending Northern Cal TRACON
11:38 38.3333 -121.3833 307° West 292 336 9,200 -1,800 Descending Northern Cal TRACON
11:39 38.3833 -121.4667 307° West 287 330 7,600 -1,620 Descending Northern Cal TRACON
11:40 38.4333 -121.5333 314° West 278 320 6,000 -1,440 Descending Northern Cal TRACON
11:41 38.4833 -121.5833 322° Northwest 268 308 4,900 -1,260 Descending Northern Cal TRACON
11:42 38.5500 -121.6333 330° Northwest 265 305 3,700 -1,020 Descending Northern Cal TRACON
11:42 38.5556 -121.6372 331° Northwest 263 303 3,600 -540 Descending Oakland Center
11:43 38.6311 -121.6942 330° Northwest 262 302 3,000 -360 Descending Oakland Center
11:44 38.7008 -121.7008 356° North 251 289 2,900 -360 Descending Oakland Center
11:45 38.7525 -121.6942 North 222 255 2,300 -780 Descending Oakland Center
11:46 38.7656 -121.6386 73° East 183 211 1,400 -900 Descending Oakland Center
11:46 38.7667 -121.6167 86° East 140 161 1,000 -660 Descending Northern Cal TRACON
11:47 38.7333 -121.6000 159° South 129 148 500 -540 Descending Northern Cal TRACON